星链-5719 (STARLINK-5719 )

导读

STARLINK-5719是美国SpaceX公司星链计划中的卫星,于2023年2月12日发射升空,归属星链第二代星座部署序列。星链项目旨在构建全球卫星互联网星座,提供覆盖全球的高速互联网接入服务,可服务于住宅宽带、航空、航运、应急通信等多个领域。该卫星进入地球低轨运行,是星链星座持续扩容、完善全球网络覆盖的重要组成部分,推动星链服务能力进一步提升。

Basic Information
目录编号:
55609
目录名称:
STARLINK-5719
国际标识:
2023-020AS
轨道中心:
EARTH
卫星名称:
星链-5719
卫星全名:
星链-5719 (STARLINK-5719 )
卫星状态:
在轨 (已飞行1307 天)
发射日期:
2023-02-12 UTC
国别 :
美国 (US)
星等 :
--
This satellite is enrolled in the Space Conjunction Data Service (SCDS) and the current flight risk assessment level is: High Risk
Orbit Information
数据来源 国际轨道数据
星历时间: 2026-09-10T04:25:55+0800
1天前
查看轨道信息
半长轴: 6861.202km
偏心率: 0.0000983
轨道倾角: 43.004°
近地点辐角 268.965°
升交点赤经 34.255°
平近点角 91.109°
近地点: 482.39km
远地点: 483.74km
周期: 94.267分钟
每日圈数: 15.275747
Detailed Information
固有亮度:
5
最大亮度:
2.5
卫星平台:
Starlink v1.5
覆盖范围:
全球
运营商:
太空探索技术公司
运营商所在国:
美国
制造商(研发单位):
太空探索技术公司
制造商所在国:
美国
使用方式:
暂无
Satellite Introduction
星链(Starlink)计划是由太空探索技术公司(SpaceX)提出的一个巨型低轨卫星互联网星座项目,计划在2019年至2024年间在太空搭建由约1.2万颗卫星组成的“星链”网络,其中1584颗将部署在地球上空550千米处的近地轨道,并从2020年开始工作。该卫星仍在工作。
2D Orbit Map
3D Orbit Map
Orbit Altitude Analysis Chart
Orbit Inclination Analysis Chart
Orbit Comprehensive Analysis Chart
View Comprehensive Chart
Conjunction Data List
Event ID Objects TCA Miss Dist (km) Collision Risk Probability Collision Risk Index (CRI) Action
CDM_260912-081105-560906-228221
2026-09-12T
08:11:06+0000
0.302 km
远距离
4.205911E-4 高风险 0.87
CDM_260913-135805-560906-210221
2026-09-13T
13:58:16+0000
0.833 km
远距离
3.814382E-5 中风险 0.67
CDM_260913-122405-560906-210221
2026-09-13T
12:24:07+0000
2.089 km
极远距离
2.015542E-6 低风险 0.41
CDM_260912-063605-560906-228221
2026-09-12T
06:36:57+0000
2.268 km
极远距离
1.648436E-6 低风险 0.39
CDM_260912-160603-130505-560924
2026-09-12T
16:06:32+0000
2.547 km
极远距离
1.640468E-6 低风险 0.39
CDM_260912-235105-187305-560921
2026-09-12T
23:51:39+0000
2.708 km
极远距离
1.292212E-6 低风险 0.37
CDM_260913-153205-560906-210221
2026-09-13T
15:32:25+0000
2.694 km
极远距离
1.23627E-6 低风险 0.37
CDM_260911-214205-560906-403821
2026-09-11T
21:42:18+0000
2.943 km
极远距离
6.737671E-7 极低风险 0.32
CDM_260913-000505-560906-749721
2026-09-13T
00:05:04+0000
2.830 km
极远距离
6.535288E-7 极低风险 0.31
Miss Distance Evolution Trend with All Objects
Collision Probability Evolution Trend with All Objects